Overview Statistics Trail Chart Weather Telemetry Raw packets
 

This is the latest recevied weather packets stored in our database for station/object SV9TNF-51. If no packets are shown the sender has not sent any weather packets the latest 10 day(s).

<< 33 34 35 36 37 38 39 >>
Time Temp. Humidity Pressure Rain* Wind** Luminosity Snow
1788445456 30.56° C 51% 1009.1 hPa 0 mm 4.92 m/s, 143° - -
1788445156 30.56° C 54% 1009.1 hPa 0 mm 10.73 m/s, 82° - -
1788444856 31.11° C 53% 1009.1 hPa 0 mm 5.81 m/s, 342° - -
1788444555 31.67° C 50% 1009.1 hPa 0 mm 6.71 m/s, 303° - -
1788444256 32.22° C 49% 1009.1 hPa 0 mm 3.13 m/s, 127° - -
1788443955 31.67° C 49% 1009.1 hPa 0 mm 10.28 m/s, 325° - -
1788443655 32.22° C 48% 1009.1 hPa 0 mm 4.02 m/s, 131° - -
1788443355 32.22° C 49% 1009.1 hPa 0 mm 6.26 m/s, 123° - -
1788443055 33.33° C 46% 1009.1 hPa 0 mm 1.34 m/s, 90° - -
1788442755 33.33° C 46% 1009.1 hPa 0 mm 1.79 m/s, 137° - -
1788442455 32.22° C 48% 1009.1 hPa 0 mm 1.79 m/s, 7° - -
1788442155 31.67° C 48% 1009.1 hPa 0 mm 8.05 m/s, 296° - -
1788441855 31.67° C 49% 1009.1 hPa 0 mm 8.94 m/s, 315° - -
1788441555 31.67° C 48% 1009.1 hPa 0 mm 6.71 m/s, 322° - -
1788441254 31.11° C 49% 1009.1 hPa 0 mm 8.05 m/s, 73° - -
1788440954 31.11° C 48% 1009.1 hPa 0 mm 6.71 m/s, 318° - -
1788440654 31.67° C 48% 1009.1 hPa 0 mm 10.28 m/s, 137° - -
1788440354 31.67° C 47% 1009.5 hPa 0 mm 6.26 m/s, 125° - -
1788440054 31.67° C 48% 1009.5 hPa 0 mm 8.05 m/s, 138° - -
1788439754 31.67° C 48% 1009.5 hPa 0 mm 8.05 m/s, 91° - -
1788439473 31.67° C 47% 1009.5 hPa 0 mm 7.6 m/s, 239° - -
1788439154 31.67° C 48% 1009.5 hPa 0 mm 9.39 m/s, 272° - -
1788438859 33.33° C 43% 1009.5 hPa 0 mm 12.96 m/s, 320° - -
1788438554 32.22° C 45% 1009.5 hPa 0 mm 1.79 m/s, 321° - -
1788438253 32.78° C 45% 1009.8 hPa 0 mm 8.05 m/s, 160° - -

* Rain latest hour (hover to see other rain measurements)
** Current wind speed in m/s (hover to see current wind gust speed)